Presure
102 90 97 99 111 149 120 138 118 146 133 118 149 149 112 154 138 102 117 152 156 179 136 145 148 151 149 147 144 154 125 146 122 101 145 135 148 153 153 127 87 88 92
134 120 105 127 111 105 129 161 157 151 159 129 107 123 133 166 166 172 167 130 145 176 170 177 147 144 144 144 146 141 114 95 89 90 148 137 84 90 148 149 155 90 91
101 106 112 141 130 114 124 120 113 148 133 111 119 139 157 159 173 172 174 161 147 140 167 176 137 142 148 146 145 145 143 147 148 144 142 146 158 154 142 160 101 94 90
124 104 94 159 125 108 140 107 124 107 100 108 105 102 146 124 99 115 120 133 140 176 162 133 131 136 144 138 147 136 140 134 140 141 142 143 150 147 150 154 175 160 151
108 130 110 153 109 150 122 128 110 108 103 102 102 163 133 160 115 162 175 155 134 163 114 169 145 141 142 151 159 147 143 148 139 138 138 146 155 219 94 114 151 154 153
103 130 103 104 119 145 110 119 104 111 118 92 93 94 99 95 175 102 100 99 98 92 99 96 102 97 104 106 104 102 121 147 139 129 117 144 148 156 154 161 169 96 96
104 139 127 145 123 129 103 108 108 101 101 102 102 147 102 102 125 97 95 98 100 102 101 101 109 97 108 101 99 99 108 104 101 116 115 137 139 98 117 123 161 186 173
108 162 109 119 118 127 100 142 133 101 98 99 98 98 100 95 97 167 98 98 97 96 130 154 155 96 98 96 96 96 93 97 118 99 117 95 173 158 199 168 128 97 130
143 156 102 118 156 142 106 100 100 98 98 98 97 98 137 97 97 109 96 138 99 98 155 98 112 97 95 94 96 97 95 96 104 108 93 102 99 90 123 136 115 128 225
162 167 109 97 107 169 114 111 98 101 100 99 100 96 97 95 98 97 101 124 96 98 144 130 108 136 105 103 97 99 116 129 168 160 171 115 83 89 144 235 158 190 147
161 141 115 132 100 101 178 134 115 98 89 96 94 103 101 158 140 161 117 158 95 121 152 113 104 89 90 88 139 134 133 174 136 226 83 85 90 160 232 152 112 286 326
169 102 167 123 111 132 141 168 140 129 142 95 97 99 99 92 161 149 153 152 150 145 120 116 137 117 150 122 133 171 158 134 165 166 81 91 92 115 122 93 180 283 329
98 167 164 160 108 162 102 95 90 99 96 99 97 103 106 100 127 85 115 151 102 148 145 120 152 150 107 146 131 98 140 199 100 94 87 142 219 82 99 291 288 272 319
159 160 162 86 85 155 170 90 171 104 105 95 97 159 163 136 137 153 101 106 162 133 79 106 138 156 108 119 73 108 83 128 92 78 76 96 137 230 197 287 242 232 229
157 130 132 113 165 162 107 145 163 138 164 124 160 128 158 77 67 99 116 110 82 104 84 77 116 84 87 85 131 77 172 119 117 109 211 185 212 150 154 295 241 158 240
182 172 153 172 149 115 152 128 113 158 163 126 72 72 108 109 70 78 79 96 88 83 89 94 86 96 94 165 152 89 164 138 83 161 154 167 204 240 196 210 240 221 151
83 154 107 113 114 150 80 109 121 83 73 73 77 77 79 75 144 127 121 94 92 93 162 166 184 165 171 169 151 161 134 185 87 80 193 186 211 232 198 206 79 230 222
163 121 125 143 126 144 79 89 87 77 147 130 116 86 86 144 129 138 140 108 151 162 160 174 180 192 167 149 137 196 179 116 194 70 179 196 225 206 215 205 254 215 235
98 175 176 179 105 163 73 78 88 119 111 98 84 125 119 168 172 171 171 163 161 159 171 180 155 200 154 157 193 190 190 190 202 192 201 214 215 207 213 192 195 192 224
170 117 94 89 103 79 78 76 82 86 93 161 164 166 161 153 162 176 163 152 154 165 177 151 200 135 175 146 188 181 187 193 209 197 201 198 192 212 208 192 181 222 220
188 86 94 110 182 81 84 170 92 169 162 160 116 155 163 156 146 158 156 153 159 143 171 169 196 198 193 186 177 182 187 202 184 205 194 187 204 204 196 144 174 193 236
186 182 179 173 166 94 92 142 99 108 153 156 161 152 169 151 170 178 150 145 133 144 192 192 194 181 188 178 180 185 191 196 200 197 197 203 208 205 209 150 188 216 249
188 187 188 151 165 141 164 188 171 133 137 177 146 165 170 166 144 143 168 143 193 191 189 186 182 185 178 177 184 190 194 193 188 201 204 203 205 204 160 201 244 245 219
188 183 181 181 189 191 146 146 168 181 152 146 191 187 190 181 177 146 186 192 186 190 184 178 183 175 184 185 173 187 183 189 184 197 198 209 270 261 257 280 190 245 224
185 183 188 191 190 183 180 193 134 132 134 138 175 189 156 189 185 186 189 186 184 176 183 182 177 185 179 178 177 181 133 188 183 198 190 211 281 281 211 267 260 249 243
191 188 187 181 186 188 185 145 163 149 190 190 189 193 190 189 191 188 189 184 181 181 180 176 181 180 180 179 183 189 191 180 192 208 205 159 270 256 272 263 256 252 241
Wind_Speed
18 14 14 12 13 24 13 20 13 19 18 12 22 24 8 24 22 13 16 22 21 23 21 23 22 20 21 21 22 25 20 25 20 16 30 26 33 33 34 26 13 13 16
26 23 17 23 14 13 18 28 26 26 25 20 9 18 22 23 21 25 27 22 21 24 24 26 21 22 22 24 25 24 18 14 13 14 32 35 13 13 37 37 39 18 17
21 21 21 29 24 15 20 18 14 24 22 11 13 24 22 28 26 27 27 24 21 21 25 27 24 24 25 25 27 28 29 31 32 33 34 36 40 39 39 38 21 17 17
29 22 18 43 24 16 29 16 20 13 14 13 10 11 27 17 15 18 18 21 23 28 26 22 23 24 25 27 29 28 30 31 35 37 39 40 42 43 41 42 44 43 45
28 34 24 42 20 38 24 25 17 16 15 13 12 30 24 30 18 28 30 27 24 27 21 28 27 26 28 29 32 30 33 35 38 39 41 44 43 46 19 27 45 47 46
27 37 23 20 26 38 20 26 18 20 23 15 15 15 15 16 31 17 17 17 18 20 21 22 23 19 23 24 22 22 31 37 41 37 31 47 47 45 46 49 50 22 24
28 43 37 42 31 33 19 22 22 20 19 19 19 30 17 18 24 19 19 20 21 23 25 26 26 22 26 24 22 23 27 27 21 33 30 48 46 24 29 29 51 48 49
31 57 32 33 31 33 21 37 32 22 22 20 18 18 18 18 20 35 24 24 24 24 30 33 34 27 28 26 27 28 27 23 36 20 34 20 54 39 51 50 39 31 45
51 57 30 34 50 41 28 25 25 22 22 21 20 19 32 21 23 26 25 33 29 30 36 31 34 31 31 27 32 36 32 27 38 23 20 29 24 26 39 40 39 50 57
57 58 34 28 32 57 37 33 25 28 27 25 25 20 24 23 27 27 28 33 30 33 37 35 38 40 42 40 39 40 41 50 51 55 60 25 29 32 57 55 57 60 60
56 50 38 44 30 29 53 39 36 24 20 24 22 30 30 41 36 43 33 45 31 39 42 40 32 30 33 34 46 46 47 53 28 62 28 25 29 49 57 53 42 50 49
60 35 59 41 34 42 44 55 38 40 40 28 28 29 32 25 45 42 45 45 42 43 38 40 45 41 50 48 48 56 54 53 38 44 31 26 34 49 54 41 44 44 37
28 60 60 56 37 55 32 28 24 31 30 35 30 37 37 39 48 19 31 47 29 47 46 38 53 51 43 54 50 26 54 65 32 31 28 68 57 44 45 40 39 44 32
61 60 59 21 21 54 58 24 52 32 39 28 33 50 52 51 40 49 31 34 56 46 24 36 54 58 34 52 24 48 27 44 32 33 34 50 72 55 58 42 45 40 40
63 47 48 43 60 58 35 51 55 46 56 38 53 50 51 20 13 36 44 43 34 41 36 29 50 37 42 40 46 35 61 56 52 50 55 53 55 45 66 45 43 39 45
68 66 58 62 56 38 54 41 35 56 58 39 19 22 39 40 21 38 39 44 43 42 48 52 45 52 58 66 54 45 53 63 46 64 52 60 58 59 51 52 40 42 35
24 60 44 46 51 59 17 49 40 27 21 17 29 33 34 35 55 60 59 51 53 52 68 71 73 69 67 66 56 66 66 65 42 29 64 60 66 59 53 53 44 45 44
69 51 54 57 51 53 22 27 32 30 54 50 51 43 41 57 61 61 59 59 65 71 69 75 75 72 64 60 60 66 70 44 68 31 66 67 66 63 58 53 45 50 33
42 67 65 62 36 64 29 32 37 56 51 48 45 57 59 67 67 69 68 70 72 70 76 76 64 71 63 65 68 70 69 69 69 69 71 68 67 66 61 53 55 50 44
65 52 38 31 38 32 38 33 40 45 53 66 67 68 68 65 69 70 70 70 71 75 75 67 74 63 68 69 71 73 72 72 71 69 69 69 66 66 64 57 55 52 50
74 34 46 43 64 41 46 69 52 68 67 67 60 66 70 68 67 72 72 72 75 65 68 68 73 72 71 72 75 75 74 75 73 70 70 71 69 67 65 63 59 59 47
73 69 68 64 62 52 53 60 65 62 66 69 67 68 69 68 74 73 72 68 63 67 74 75 73 77 75 76 75 76 75 75 75 74 72 72 70 69 69 62 64 61 49
71 69 68 61 64 63 63 65 64 64 66 72 66 68 69 71 71 69 81 68 72 72 74 75 78 77 79 80 79 78 78 77 78 77 75 75 75 72 68 70 59 55 55
68 68 67 66 65 64 61 65 66 66 73 67 71 71 71 72 75 72 72 72 74 74 76 81 79 81 81 81 78 80 78 79 78 79 77 79 71 75 66 52 63 54 55
68 67 67 65 64 63 63 61 63 64 65 66 69 71 74 72 73 74 73 74 76 81 79 81 82 82 83 83 83 84 71 81 82 83 77 79 56 55 62 52 51 51 52
64 66 65 63 66 64 65 65 66 67 68 70 72 72 71 73 72 74 75 76 79 80 82 83 84 85 86 86 88 89 87 81 87 90 84 69 47 48 48 50 51 52 51
Wind_Direction
220 210 212 219 231 257 234 249 248 257 238 254 259 258 266 265 258 254 264 272 273 274 273 271 274 275 277 276 276 278 281 275 288 308 279 282 275 273 270 276 333 333 330
248 230 237 243 239 228 248 266 261 257 275 254 248 274 264 279 287 279 274 275 271 279 269 269 273 277 279 281 282 284 294 305 320 321 277 278 330 314 271 270 271 311 314
229 233 241 255 251 239 241 247 251 263 256 262 275 267 280 272 285 284 284 275 274 277 276 281 273 275 280 282 284 285 285 286 286 283 278 279 281 277 274 273 289 290 297
244 228 212 259 251 235 253 237 252 245 253 263 260 261 271 280 272 282 270 263 268 288 289 290 287 277 278 279 279 281 282 282 280 280 280 279 279 278 278 278 279 272 271
232 247 239 259 240 259 246 251 242 242 249 251 254 279 276 278 282 277 283 279 270 287 284 287 276 277 277 278 281 277 275 277 278 278 278 280 277 303 292 284 277 277 274
230 252 232 229 243 259 238 245 241 243 249 245 247 252 263 262 284 283 283 278 278 277 288 286 295 289 299 300 297 295 289 276 278 282 286 279 280 282 280 284 285 290 286
232 253 238 256 248 251 236 241 240 248 252 258 262 278 271 277 279 283 281 287 290 294 295 294 287 292 295 299 296 297 295 299 289 280 281 282 282 287 288 288 280 278 282
232 254 234 243 244 250 236 259 257 245 251 255 259 266 274 271 284 278 287 289 293 288 286 281 283 297 301 299 297 295 284 292 282 282 277 285 297 295 292 285 283 280 277
247 253 231 247 259 258 241 241 244 249 254 260 262 269 276 278 280 279 283 278 290 290 283 292 293 298 298 300 299 298 290 290 296 275 269 292 287 276 283 290 285 280 276
246 250 231 234 240 263 241 244 249 250 254 261 266 268 275 274 281 281 283 283 286 287 278 285 292 276 295 296 296 294 284 280 300 293 298 286 273 284 278 290 278 282 280
247 245 243 250 237 237 265 258 251 253 255 265 266 269 274 281 279 282 283 285 286 288 285 282 290 296 297 296 279 277 279 301 296 316 264 270 287 299 302 285 287 287 279
248 235 251 248 248 254 257 264 264 261 269 267 270 274 277 273 280 280 283 283 283 280 278 279 274 280 294 283 278 301 291 285 306 300 264 283 285 297 291 278 285 291 285
239 250 250 254 248 259 249 250 255 258 265 269 272 277 277 278 280 277 284 283 295 283 281 282 289 294 281 286 282 288 297 308 270 264 265 282 312 273 276 308 299 295 286
247 248 250 223 239 258 261 256 266 265 272 269 274 277 279 278 268 282 288 286 290 279 296 276 280 297 301 286 281 280 287 287 256 267 274 294 284 316 303 319 312 304 297
244 246 247 250 255 257 253 257 264 268 268 268 276 277 276 267 267 286 276 280 292 285 291 283 294 291 292 289 289 272 302 287 277 271 311 303 315 297 293 332 313 279 300
243 244 247 249 252 255 257 259 262 266 269 274 306 309 292 279 290 299 295 285 286 290 289 289 288 291 290 297 293 281 298 280 253 287 299 298 314 324 307 317 314 310 289
230 245 253 255 255 256 272 261 267 283 292 298 299 299 294 295 277 273 278 287 287 288 292 294 295 296 298 297 292 301 281 304 271 292 310 308 317 320 307 313 275 312 309
241 251 248 249 255 256 263 274 268 288 267 266 269 292 292 276 274 273 287 288 286 290 293 293 295 297 294 295 287 306 307 297 310 278 308 312 317 313 314 311 313 309 304
250 241 244 248 251 254 288 279 275 265 271 281 292 282 277 278 280 282 284 286 287 290 291 293 293 296 292 292 303 304 305 307 309 308 309 311 311 310 311 304 305 294 298
242 250 254 255 264 271 275 280 284 290 284 271 272 273 276 281 282 282 285 284 287 290 291 291 294 287 294 288 301 302 305 307 308 307 306 306 307 306 306 301 298 300 294
241 265 257 261 251 275 278 259 281 264 268 271 284 276 278 281 277 283 283 285 288 287 291 290 294 297 297 297 300 302 306 307 306 304 304 305 303 302 301 291 294 301 283
241 244 246 249 253 273 279 261 279 279 270 272 272 275 275 278 281 282 283 284 286 287 289 291 293 293 296 297 299 302 305 304 303 303 303 302 301 300 299 290 296 295 282
243 246 249 255 255 256 259 263 264 263 267 270 271 274 276 277 278 282 281 284 287 287 288 289 290 293 295 298 301 304 304 304 303 302 303 301 299 297 291 296 289 283 282
244 248 250 253 258 260 261 264 266 267 270 273 271 275 276 277 277 283 282 283 283 284 285 287 290 293 296 299 299 303 303 301 303 303 302 303 298 298 294 282 289 275 276
243 249 252 255 258 261 262 264 266 268 271 274 273 274 278 275 276 278 280 280 282 283 287 288 291 296 298 300 301 301 291 302 303 303 301 304 294 291 292 283 277 270 268
242 247 252 256 257 259 261 264 267 270 271 272 273 275 275 276 277 278 280 281 281 284 287 291 294 295 297 298 298 300 300 301 301 302 304 295 301 296 289 284 279 274 269